Location: Unspecified
(0.0000°N, 0.0000°E)
Time: 11:06:06
(UTC+00:00)

Altair - Pass Details

Date: 26 November 2019
Orbit: 1502 x 1682 km, 47.2° (Epoch: 14 December)

Event Time Altitude Azimuth Distance (km) Brightness Sun altitude
Rises 07:29:18 0° 354° (N) 4,671 9.8 23.7°
Reaches altitude 10° 07:34:36 10° 18° (NNE) 3,726 9.6 25.0°
Maximum altitude 07:38:53 14° 46° (NE) 3,468 9.8 25.9°
Drops below altitude 10° 07:43:12 10° 74° (ENE) 3,796 10.4 26.9°
Sets 07:48:38 0° 97° (E) 4,827 11.2 28.2°
